• In Hungary
  • List of Countries
  • For 7 days
  • Water Temperature
  • Satellite Maps
  • Weather Map
  • News
  • Weather Widgets
  • user-avatar
    Login

    Hourly Weather San Kamphaeng

    Today, 18 October, Wednesday

    Time Temperature Precipitation Wind Pressure Humidity
    00:00 +23°C° 0.2 mm 0 mps 731 mmHg 96%
    01:00 +22°C° 0 mm 0 mps 731 mmHg 96%
    02:00 +22°C° 0.1 mm 0 mps 731 mmHg 96%
    03:00 +22°C° 0.1 mm 0 mps 731 mmHg 96%
    04:00 +22°C° 0.1 mm 0 mps 731 mmHg 96%
    05:00 +22°C° 0.2 mm 0 mps 731 mmHg 96%
    06:00 +22°C° 0.2 mm 0 mps 732 mmHg 96%
    07:00 +25°C° 0 mm 1 mps 732 mmHg 95%
    08:00 +26°C° 0.2 mm 1 mps 732 mmHg 90%
    09:00 +27°C° 0.2 mm 1 mps 732 mmHg 84%
    10:00 +28°C° 0.2 mm 1 mps 733 mmHg 78%
    11:00 +29°C° 0.1 mm 1 mps 732 mmHg 75%
    12:00 +30°C° 0.1 mm 1 mps 732 mmHg 71%
    13:00 +30°C° 0 mm 1 mps 732 mmHg 67%
    14:00 +30°C° 0 mm 1 mps 732 mmHg 66%
    15:00 +31°C° 0 mm 1 mps 731 mmHg 65%
    16:00 +31°C° 0 mm 1 mps 731 mmHg 64%
    17:00 +29°C° 0.1 mm 1 mps 731 mmHg 71%
    18:00 +25°C° 0.1 mm 0 mps 731 mmHg 79%
    19:00 +24°C° 0 mm 0 mps 732 mmHg 84%
    20:00 +23°C° 0 mm 0 mps 732 mmHg 86%
    21:00 +23°C° 0 mm 0 mps 732 mmHg 87%
    22:00 +22°C° 0 mm 0 mps 733 mmHg 89%
    23:00 +22°C° 0 mm 0 mps 733 mmHg 90%

    Tomorrow, 19 October, Thursday

    Time Temperature Precipitation Wind Pressure Humidity
    00:00 +22°C° 0 mm 0 mps 733 mmHg 90%
    01:00 +22°C° 0 mm 0 mps 733 mmHg 91%
    02:00 +22°C° 0 mm 0 mps 733 mmHg 92%
    03:00 +21°C° 0 mm 0 mps 732 mmHg 92%
    04:00 +21°C° 0 mm 0 mps 732 mmHg 93%
    05:00 +21°C° 0 mm 0 mps 732 mmHg 92%
    06:00 +22°C° 0 mm 0 mps 733 mmHg 91%
    07:00 +22°C° 0 mm 0 mps 733 mmHg 91%
    08:00 +24°C° 0 mm 0 mps 733 mmHg 82%
    09:00 +28°C° 0 mm 1 mps 734 mmHg 73%
    10:00 +31°C° 0 mm 1 mps 734 mmHg 65%
    11:00 +31°C° 0.1 mm 1 mps 733 mmHg 62%
    12:00 +32°C° 0.1 mm 1 mps 732 mmHg 60%
    13:00 +33°C° 0.1 mm 1 mps 732 mmHg 58%
    14:00 +33°C° 0.2 mm 1 mps 731 mmHg 59%
    15:00 +32°C° 0.2 mm 1 mps 731 mmHg 61%
    16:00 +32°C° 0.2 mm 1 mps 730 mmHg 63%
    17:00 +30°C° 0.2 mm 1 mps 730 mmHg 70%
    18:00 +26°C° 0.2 mm 0 mps 730 mmHg 77%
    19:00 +25°C° 0.2 mm 0 mps 731 mmHg 84%
    20:00 +24°C° 0.4 mm 0 mps 731 mmHg 86%
    21:00 +24°C° 0.4 mm 0 mps 732 mmHg 88%
    22:00 +23°C° 0.4 mm 0 mps 733 mmHg 90%
    23:00 +23°C° 0.1 mm 0 mps 733 mmHg 91%

    Day after tomorrow, 20 October, Friday

    Time Temperature Precipitation Wind Pressure Humidity
    00:00 +23°C° 0.1 mm 0 mps 733 mmHg 92%
    01:00 +23°C° 0.1 mm 0 mps 732 mmHg 92%
    02:00 +22°C° 0.1 mm 0 mps 732 mmHg 93%
    03:00 +22°C° 0.1 mm 0 mps 732 mmHg 93%
    04:00 +22°C° 0.1 mm 0 mps 732 mmHg 93%
    05:00 +22°C° 0.1 mm 0 mps 732 mmHg 93%
    06:00 +22°C° 0.1 mm 0 mps 732 mmHg 92%
    07:00 +23°C° 0.1 mm 0 mps 733 mmHg 92%
    08:00 +25°C° 0.1 mm 0 mps 733 mmHg 84%
    09:00 +27°C° 0.1 mm 0 mps 734 mmHg 76%
    10:00 +30°C° 0.1 mm 0 mps 734 mmHg 67%
    11:00 +30°C° 0.5 mm 0 mps 733 mmHg 66%
    12:00 +31°C° 0.5 mm 0 mps 732 mmHg 64%
    13:00 +32°C° 0.5 mm 0 mps 732 mmHg 62%
    14:00 +33°C° 0.6 mm 1 mps 731 mmHg 64%
    15:00 +33°C° 0.6 mm 1 mps 730 mmHg 66%
    16:00 +32°C° 0.6 mm 1 mps 729 mmHg 68%
    17:00 +30°C° 0.5 mm 1 mps 730 mmHg 74%
    18:00 +29°C° 0.5 mm 1 mps 730 mmHg 80%
    19:00 +27°C° 0.5 mm 1 mps 731 mmHg 87%
    20:00 +25°C° 0.3 mm 0 mps 731 mmHg 88%
    21:00 +24°C° 0.3 mm 0 mps 732 mmHg 89%
    22:00 +24°C° 0.3 mm 0 mps 732 mmHg 90%
    23:00 +24°C° 0.1 mm 0 mps 732 mmHg 91%

    21 October, Saturday

    Time Temperature Precipitation Wind Pressure Humidity
    00:00 +23°C° 0.1 mm 0 mps 732 mmHg 92%
    01:00 +23°C° 0.1 mm 0 mps 732 mmHg 93%
    02:00 +23°C° 0 mm 0 mps 731 mmHg 93%
    03:00 +23°C° 0 mm 0 mps 731 mmHg 93%
    04:00 +22°C° 0 mm 0 mps 731 mmHg 94%
    05:00 +23°C° 0 mm 0 mps 731 mmHg 93%
    06:00 +23°C° 0 mm 0 mps 731 mmHg 93%
    07:00 +23°C° 0 mm 0 mps 732 mmHg 92%
    08:00 +26°C° 0 mm 0 mps 732 mmHg 83%
    09:00 +28°C° 0 mm 0 mps 733 mmHg 73%
    10:00 +31°C° 0 mm 0 mps 733 mmHg 63%
    11:00 +31°C° 0.6 mm 0 mps 732 mmHg 63%
    12:00 +32°C° 0.6 mm 0 mps 731 mmHg 62%
    13:00 +34°C° 0.6 mm 1 mps 730 mmHg 62%
    14:00 +34°C° 0.8 mm 1 mps 730 mmHg 63%
    15:00 +33°C° 0.8 mm 1 mps 729 mmHg 64%
    16:00 +33°C° 0.8 mm 1 mps 728 mmHg 66%
    17:00 +29°C° 0.4 mm 0 mps 729 mmHg 71%
    18:00 +27°C° 0.4 mm 0 mps 729 mmHg 76%
    19:00 +26°C° 0.4 mm 0 mps 729 mmHg 81%
    20:00 +25°C° 0.3 mm 0 mps 730 mmHg 83%
    21:00 +25°C° 0.3 mm 0 mps 731 mmHg 85%
    22:00 +24°C° 0.3 mm 0 mps 731 mmHg 87%
    23:00 +24°C° 0 mm 0 mps 731 mmHg 88%

    22 October, Sunday

    Time Temperature Precipitation Wind Pressure Humidity
    00:00 +24°C° 0 mm 0 mps 731 mmHg 90%
    01:00 +23°C° 0 mm 0 mps 731 mmHg 91%
    02:00 +23°C° 0.1 mm 0 mps 730 mmHg 92%
    03:00 +23°C° 0.1 mm 0 mps 730 mmHg 93%
    04:00 +23°C° 0.1 mm 0 mps 730 mmHg 93%
    05:00 +23°C° 0 mm 0 mps 730 mmHg 93%
    06:00 +23°C° 0 mm 0 mps 731 mmHg 92%
    07:00 +23°C° 0 mm 0 mps 731 mmHg 92%
    08:00 +26°C° 0.1 mm 0 mps 731 mmHg 83%
    09:00 +28°C° 0.1 mm 0 mps 732 mmHg 75%
    10:00 +30°C° 0.1 mm 0 mps 732 mmHg 66%
    11:00 +31°C° 0.6 mm 0 mps 731 mmHg 64%
    12:00 +34°C° 0.6 mm 1 mps 730 mmHg 62%
    13:00 +34°C° 0.6 mm 1 mps 729 mmHg 60%
    14:00 +34°C° 0.7 mm 1 mps 729 mmHg 61%
    15:00 +34°C° 0.7 mm 1 mps 728 mmHg 63%
    16:00 +33°C° 0.7 mm 1 mps 728 mmHg 64%
    17:00 +31°C° 0.4 mm 1 mps 728 mmHg 71%
    18:00 +30°C° 0.4 mm 1 mps 728 mmHg 77%
    19:00 +26°C° 0.4 mm 0 mps 729 mmHg 84%
    20:00 +25°C° 0.1 mm 0 mps 729 mmHg 86%
    21:00 +25°C° 0.1 mm 0 mps 730 mmHg 88%
    22:00 +24°C° 0.1 mm 0 mps 731 mmHg 89%
    23:00 +24°C° 0.3 mm 0 mps 730 mmHg 90%

    23 October, Monday

    Time Temperature Precipitation Wind Pressure Humidity
    00:00 +24°C° 0.3 mm 0 mps 730 mmHg 91%
    01:00 +24°C° 0.3 mm 0 mps 730 mmHg 92%
    02:00 +23°C° 0.7 mm 0 mps 730 mmHg 93%
    03:00 +23°C° 0.7 mm 0 mps 730 mmHg 94%
    04:00 +23°C° 0.7 mm 0 mps 729 mmHg 95%
    05:00 +23°C° 0.5 mm 0 mps 730 mmHg 94%
    06:00 +23°C° 0.5 mm 0 mps 731 mmHg 93%
    07:00 +24°C° 0.5 mm 0 mps 731 mmHg 93%
    08:00 +25°C° 0.4 mm 0 mps 731 mmHg 86%
    09:00 +29°C° 0.4 mm 1 mps 732 mmHg 78%
    10:00 +31°C° 0.4 mm 1 mps 732 mmHg 71%
    11:00 +32°C° 0.6 mm 1 mps 731 mmHg 69%
    12:00 +32°C° 0.6 mm 1 mps 730 mmHg 66%
    13:00 +34°C° 0.6 mm 2 mps 730 mmHg 64%
    14:00 +34°C° 0.7 mm 2 mps 729 mmHg 66%
    15:00 +32°C° 0.7 mm 2 mps 729 mmHg 68%
    16:00 +32°C° 0.7 mm 2 mps 729 mmHg 71%
    17:00 +30°C° 0.7 mm 1 mps 729 mmHg 77%
    18:00 +28°C° 0.7 mm 1 mps 730 mmHg 83%
    19:00 +27°C° 0.7 mm 1 mps 730 mmHg 89%
    20:00 +26°C° 0.8 mm 1 mps 731 mmHg 90%
    21:00 +24°C° 0.8 mm 0 mps 731 mmHg 91%
    22:00 +24°C° 0.8 mm 0 mps 732 mmHg 92%
    23:00 +23°C° 0.5 mm 0 mps 731 mmHg 93%
    Show more